User: anonymous   Login
Location: Unspecified
(0.0000°N, 0.0000°E)
Time: 19:03:56
(UTC+00:00)
Language:

NOSS 8 (A) - Orbit

View from above orbital plane
View from above orbital plane
View from above satellite
View from above satellite

Ground track
Ground track

The orbit data is extracted from the following two-line orbital elements,

1 17997U 87043A   17091.75041180 0.00000900  00000-0  12167-3 0    01
2 17997  63.3150 285.3114 0866705  45.6273 314.3727 13.47207948    08
Epoch (UTC): 01 April 2017 18:00:35
Eccentricity: 0.0866705
inclination: 63.3150°
perigee height: 436 km
apogee height: 1729 km
right ascension of ascending node: 285.3114°
argument of perigee: 45.6273°
revolutions per day: 13.47207948
mean anomaly at epoch: 314.3727°
orbit number at epoch: 0

The dashed part of the orbit path shows where the satellite is in the earth's shadow,  

DLR